When you browse on this site, cookies collect data to enhance your experience and personalize the content and advertising you see.
Visit our Privacy Policy to learn more. By continuing to use the site, you agree to this use of cookies and data.
  • In Hungary
  • List of Countries
  • For 7 days
  • Water Temperature
  • Weather Map
  • News
  • Weather Widgets
  • user-avatar
    Login

    Hourly Weather Bansi

    Today, 25 August, Sunday

    Time Temperature Precipitation Wind Pressure Humidity
    00:00 +29°C° 0 mm 2 mps 745 mmHg 78%
    01:00 +29°C° 0.2 mm 2 mps 745 mmHg 81%
    02:00 +29°C° 0.2 mm 2 mps 744 mmHg 83%
    03:00 +29°C° 0.2 mm 2 mps 744 mmHg 85%
    04:00 +28°C° 0.1 mm 2 mps 744 mmHg 86%
    05:00 +28°C° 0.1 mm 2 mps 744 mmHg 87%
    06:00 +28°C° 0 mm 3 mps 745 mmHg 91%
    07:00 +29°C° 0 mm 3 mps 745 mmHg 86%
    08:00 +30°C° 0 mm 3 mps 745 mmHg 81%
    09:00 +31°C° 0 mm 3 mps 745 mmHg 76%
    10:00 +34°C° 0.4 mm 4 mps 745 mmHg 72%
    11:00 +35°C° 0.4 mm 4 mps 745 mmHg 69%
    12:00 +36°C° 0.4 mm 4 mps 745 mmHg 65%
    13:00 +36°C° 0.5 mm 4 mps 744 mmHg 65%
    14:00 +36°C° 0.5 mm 4 mps 744 mmHg 65%
    15:00 +36°C° 0.5 mm 3 mps 743 mmHg 65%
    16:00 +35°C° 0.2 mm 3 mps 743 mmHg 69%
    17:00 +34°C° 0.2 mm 3 mps 743 mmHg 73%
    18:00 +34°C° 0.2 mm 2 mps 742 mmHg 77%
    19:00 +32°C° 0.5 mm 2 mps 743 mmHg 78%
    20:00 +31°C° 0.5 mm 2 mps 743 mmHg 79%
    21:00 +30°C° 0.5 mm 2 mps 744 mmHg 81%
    22:00 +30°C° 0.4 mm 3 mps 744 mmHg 82%
    23:00 +30°C° 0.4 mm 3 mps 744 mmHg 84%

    Tomorrow, 26 August, Monday

    Time Temperature Precipitation Wind Pressure Humidity
    00:00 +29°C° 0.4 mm 3 mps 744 mmHg 85%
    01:00 +29°C° 0.9 mm 3 mps 744 mmHg 87%
    02:00 +28°C° 0.9 mm 3 mps 744 mmHg 89%
    03:00 +28°C° 0.9 mm 3 mps 743 mmHg 91%
    04:00 +28°C° 0.1 mm 3 mps 743 mmHg 90%
    05:00 +28°C° 0.1 mm 3 mps 743 mmHg 90%
    06:00 +28°C° 0.1 mm 3 mps 744 mmHg 90%
    07:00 +29°C° 0 mm 3 mps 744 mmHg 85%
    08:00 +32°C° 0 mm 4 mps 744 mmHg 81%
    09:00 +33°C° 0 mm 4 mps 745 mmHg 76%
    10:00 +34°C° 0 mm 4 mps 744 mmHg 72%
    11:00 +35°C° 0 mm 4 mps 744 mmHg 67%
    12:00 +36°C° 0 mm 4 mps 744 mmHg 63%
    13:00 +36°C° 0 mm 4 mps 743 mmHg 62%
    14:00 +37°C° 0 mm 4 mps 743 mmHg 62%
    15:00 +37°C° 0 mm 3 mps 742 mmHg 61%
    16:00 +36°C° 0 mm 3 mps 742 mmHg 64%
    17:00 +36°C° 0 mm 3 mps 742 mmHg 67%
    18:00 +35°C° 0 mm 3 mps 741 mmHg 70%
    19:00 +34°C° 0 mm 2 mps 742 mmHg 72%
    20:00 +34°C° 0 mm 2 mps 742 mmHg 74%
    21:00 +32°C° 0 mm 2 mps 743 mmHg 76%
    22:00 +31°C° 0.3 mm 2 mps 743 mmHg 78%
    23:00 +30°C° 0.3 mm 2 mps 743 mmHg 81%

    Day after tomorrow, 27 August, Tuesday

    Time Temperature Precipitation Wind Pressure Humidity
    00:00 +30°C° 0.3 mm 3 mps 743 mmHg 83%
    01:00 +30°C° 0.3 mm 3 mps 743 mmHg 84%
    02:00 +29°C° 0.3 mm 3 mps 743 mmHg 86%
    03:00 +29°C° 0.3 mm 3 mps 743 mmHg 87%
    04:00 +29°C° 0 mm 3 mps 743 mmHg 87%
    05:00 +29°C° 0 mm 4 mps 743 mmHg 87%
    06:00 +29°C° 0 mm 4 mps 743 mmHg 87%
    07:00 +30°C° 0 mm 5 mps 743 mmHg 83%
    08:00 +32°C° 0 mm 5 mps 743 mmHg 80%
    09:00 +33°C° 0 mm 6 mps 744 mmHg 76%
    10:00 +34°C° 0 mm 6 mps 744 mmHg 72%
    11:00 +35°C° 0 mm 6 mps 743 mmHg 69%
    12:00 +36°C° 0 mm 6 mps 743 mmHg 65%
    13:00 +38°C° 0.1 mm 6 mps 743 mmHg 64%
    14:00 +37°C° 0.1 mm 5 mps 742 mmHg 62%
    15:00 +37°C° 0.1 mm 5 mps 742 mmHg 61%
    16:00 +37°C° 0.4 mm 4 mps 742 mmHg 65%
    17:00 +36°C° 0.4 mm 3 mps 741 mmHg 68%
    18:00 +35°C° 0.4 mm 3 mps 741 mmHg 72%
    19:00 +34°C° 0 mm 2 mps 742 mmHg 74%
    20:00 +32°C° 0 mm 2 mps 742 mmHg 75%
    21:00 +32°C° 0 mm 2 mps 743 mmHg 77%
    22:00 +31°C° 0 mm 2 mps 743 mmHg 78%
    23:00 +31°C° 0 mm 2 mps 744 mmHg 79%

    28 August, Wednesday

    Time Temperature Precipitation Wind Pressure Humidity
    00:00 +31°C° 0 mm 2 mps 744 mmHg 80%
    01:00 +30°C° 0 mm 2 mps 744 mmHg 80%
    02:00 +30°C° 0 mm 2 mps 743 mmHg 81%
    03:00 +30°C° 0 mm 3 mps 743 mmHg 82%
    04:00 +30°C° 0 mm 2 mps 743 mmHg 82%
    05:00 +29°C° 0 mm 2 mps 743 mmHg 83%
    06:00 +29°C° 0 mm 2 mps 743 mmHg 84%
    07:00 +31°C° 0 mm 2 mps 743 mmHg 80%
    08:00 +32°C° 0 mm 2 mps 743 mmHg 76%
    09:00 +34°C° 0 mm 3 mps 744 mmHg 72%
    10:00 +35°C° 0 mm 3 mps 744 mmHg 68%
    11:00 +36°C° 0 mm 3 mps 744 mmHg 64%
    12:00 +37°C° 0 mm 3 mps 744 mmHg 59%
    13:00 +37°C° 0 mm 3 mps 744 mmHg 59%
    14:00 +38°C° 0 mm 2 mps 743 mmHg 59%
    15:00 +38°C° 0 mm 2 mps 743 mmHg 58%
    16:00 +37°C° 0 mm 2 mps 742 mmHg 60%
    17:00 +36°C° 0 mm 1 mps 742 mmHg 62%
    18:00 +36°C° 0 mm 1 mps 742 mmHg 63%
    19:00 +35°C° 0 mm 1 mps 743 mmHg 66%
    20:00 +33°C° 0 mm 1 mps 743 mmHg 68%
    21:00 +30°C° 0 mm 0 mps 744 mmHg 71%
    22:00 +30°C° 0 mm 0 mps 744 mmHg 73%
    23:00 +30°C° 0 mm 0 mps 744 mmHg 74%

    29 August, Thursday

    Time Temperature Precipitation Wind Pressure Humidity
    00:00 +29°C° 0 mm 0 mps 744 mmHg 76%
    01:00 +29°C° 0 mm 0 mps 744 mmHg 77%
    02:00 +31°C° 0 mm 1 mps 743 mmHg 78%
    03:00 +30°C° 0 mm 1 mps 743 mmHg 79%
    04:00 +30°C° 0 mm 1 mps 743 mmHg 79%
    05:00 +30°C° 0 mm 1 mps 743 mmHg 80%
    06:00 +30°C° 0 mm 1 mps 744 mmHg 80%
    07:00 +31°C° 0 mm 1 mps 744 mmHg 77%
    08:00 +33°C° 0 mm 1 mps 744 mmHg 73%
    09:00 +34°C° 0 mm 1 mps 744 mmHg 69%
    10:00 +35°C° 0 mm 1 mps 744 mmHg 64%
    11:00 +36°C° 0 mm 1 mps 744 mmHg 60%
    12:00 +37°C° 0 mm 1 mps 744 mmHg 55%
    13:00 +37°C° 0 mm 1 mps 744 mmHg 54%
    14:00 +39°C° 0 mm 1 mps 743 mmHg 53%
    15:00 +36°C° 0 mm 0 mps 742 mmHg 51%
    16:00 +35°C° 0 mm 0 mps 742 mmHg 55%
    17:00 +35°C° 0 mm 0 mps 742 mmHg 58%
    18:00 +35°C° 0 mm 0 mps 742 mmHg 61%
    19:00 +34°C° 0 mm 0 mps 742 mmHg 62%
    20:00 +33°C° 0 mm 0 mps 742 mmHg 63%
    21:00 +32°C° 0 mm 0 mps 742 mmHg 64%
    22:00 +31°C° 0 mm 0 mps 742 mmHg 65%
    23:00 +33°C° 0 mm 1 mps 742 mmHg 67%

    30 August, Friday

    Time Temperature Precipitation Wind Pressure Humidity
    00:00 +32°C° 0 mm 1 mps 742 mmHg 68%
    01:00 +32°C° 0 mm 1 mps 742 mmHg 70%
    02:00 +32°C° 0 mm 1 mps 742 mmHg 71%
    03:00 +31°C° 0 mm 1 mps 742 mmHg 73%
    04:00 +31°C° 0.1 mm 1 mps 742 mmHg 74%
    05:00 +31°C° 0.1 mm 1 mps 742 mmHg 76%
    06:00 +31°C° 0.1 mm 2 mps 742 mmHg 77%
    07:00 +31°C° 0 mm 2 mps 742 mmHg 77%
    08:00 +33°C° 0 mm 3 mps 743 mmHg 76%
    09:00 +34°C° 0 mm 4 mps 743 mmHg 75%
    10:00 +35°C° 1.5 mm 3 mps 743 mmHg 72%
    11:00 +36°C° 1.5 mm 3 mps 743 mmHg 68%
    12:00 +37°C° 1.5 mm 3 mps 742 mmHg 65%
    13:00 +37°C° 0.3 mm 3 mps 742 mmHg 62%
    14:00 +38°C° 0.3 mm 3 mps 741 mmHg 60%
    15:00 +38°C° 0.3 mm 3 mps 741 mmHg 57%
    16:00 +38°C° 0.1 mm 2 mps 741 mmHg 61%
    17:00 +37°C° 0.1 mm 2 mps 740 mmHg 65%
    18:00 +36°C° 0.1 mm 2 mps 740 mmHg 69%
    19:00 +35°C° 0.2 mm 2 mps 741 mmHg 71%
    20:00 +34°C° 0.2 mm 2 mps 741 mmHg 74%
    21:00 +32°C° 0.2 mm 2 mps 742 mmHg 76%
    22:00 +31°C° 0.6 mm 2 mps 742 mmHg 78%
    23:00 +31°C° 0.6 mm 2 mps 742 mmHg 80%
    Show more